This is the latest recevied weather packets stored in our database for station/object N9BLE. If no packets are shown the sender has not sent any weather packets the latest 10 day(s).
| Time | Temp. | Humidity | Pressure | Rain* | Wind** | Luminosity | Snow |
|---|---|---|---|---|---|---|---|
| 1777760234 | 14.44° C | 39% | 1020.6 hPa | 0 mm | - | 329 W/m² | - |
| 1777759931 | 14.44° C | 34% | 1020.6 hPa | 0 mm | - | 97 W/m² | - |
| 1777759627 | 13.89° C | 38% | 1020.5 hPa | 0 mm | - | 371 W/m² | - |
| 1777759323 | 15° C | 38% | 1020.6 hPa | 0 mm | - | 157 W/m² | - |
| 1777759021 | 13.89° C | 34% | 1020.4 hPa | 0 mm | - | 428 W/m² | - |
| 1777758717 | 13.33° C | 37% | 1020.4 hPa | 0 mm | - | 151 W/m² | - |
| 1777758415 | 13.89° C | 37% | 1020.7 hPa | 0 mm | - | 140 W/m² | - |
| 1777758112 | 13.33° C | 37% | 1020.7 hPa | 0 mm | - | 465 W/m² | - |
| 1777757809 | 12.78° C | 39% | 1020.8 hPa | 0 mm | - | 159 W/m² | - |
| 1777757506 | 13.89° C | 37% | 1020.6 hPa | 0 mm | - | 142 W/m² | - |
| 1777757205 | 13.33° C | 41% | 1020.6 hPa | 0 mm | - | 494 W/m² | - |
| 1777756903 | 12.22° C | 37% | 1020.8 hPa | 0 mm | - | 170 W/m² | - |
| 1777756598 | 12.78° C | 40% | 1020.7 hPa | 0 mm | - | 126 W/m² | - |
| 1777756295 | 13.89° C | 41% | 1020.8 hPa | 0 mm | - | 166 W/m² | - |
| 1777755999 | 14.44° C | 41% | 1021.1 hPa | 0 mm | - | 549 W/m² | - |
| 1777755690 | 13.33° C | 36% | 1021 hPa | 0 mm | - | 609 W/m² | - |
| 1777755386 | 12.78° C | 40% | 1021.1 hPa | 0 mm | - | 197 W/m² | - |
| 1777755083 | 13.89° C | 41% | 1021.1 hPa | 0 mm | - | 213 W/m² | - |
| 1777754780 | 12.78° C | 38% | 1021.2 hPa | 0 mm | - | 710 W/m² | - |
| 1777754478 | 13.33° C | 40% | 1021.2 hPa | 0 mm | - | 235 W/m² | - |
| 1777754175 | 13.33° C | 42% | 1021.3 hPa | 0 mm | - | 242 W/m² | - |
| 1777753872 | 13.89° C | 41% | 1021.3 hPa | 0 mm | - | 252 W/m² | - |
| 1777753568 | 13.33° C | 39% | 1021.3 hPa | 0 mm | - | 240 W/m² | - |
| 1777753266 | 15° C | 36% | 1021.3 hPa | 0 mm | - | 340 W/m² | - |
| 1777752962 | 14.44° C | 41% | 1021.3 hPa | 0 mm | - | 765 W/m² | - |
* Rain latest hour (hover to see other rain measurements)
** Current wind speed in m/s (hover to see current wind gust speed)